This demonstration page uses our WeatherBlox Daily Observations layout. Learn more.

Left ArrowRight Arrow

Hourly Observations for July 23, 2022

Temp ( °F °C ) Dew Point ( °F °C ) Humidity (%) Winds ( mph kmh ) Pressure ( in mb ) Visibility ( mi km ) Precip ( " mm )
12:59 am 00:59 Partly Cloudy 80 26.7 72 22.2 76 76 SSW 5 7 30.04 1017 8 13 0.00 0.00
1:59 am 01:59 Partly Cloudy 79 26.1 72 22.2 79 79 SSW 5 7 30.04 1017 8 13 0.00 0.00
2:59 am 02:59 Partly Cloudy 77 25 71 21.7 82 82 SW 7 11 30.04 1017 8 13 0.00 0.00
3:59 am 03:59 Partly Cloudy 78 25.6 74 23.3 87 87 SW 6 9 30.04 1017 8 13 0.00 0.00
4:59 am 04:59 Partly Cloudy 77 25 74 23.3 90 90 SSW 5 7 30.04 1017 7 11 0.00 0.00
5:59 am 05:59 Partly Cloudy with Mist and Fog 77 25 75 23.9 94 94 SSW 7 11 30.05 1018 6 10 0.00 0.00
6:59 am 06:59 Partly Cloudy with Mist and Fog 77 25 74 23.3 90 90 SSW 7 11 30.06 1018 6 10 0.00 0.00
7:59 am 07:59 Mostly Cloudy 81 27.2 74 23.3 79 79 WSW 5 7 30.08 1019 7 11 0.00 0.00
8:59 am 08:59 Mostly Cloudy 82 27.8 73 22.8 74 74 WSW 6 9 30.08 1019 7 11 0.00 0.00
9:59 am 09:59 Mostly Cloudy 84 28.9 73 22.8 70 70 W 8 13 30.08 1019 7 11 0.00 0.00
10:59 am 10:59 Partly Cloudy 88 31.1 73 22.8 61 61 SE 5 7 30.08 1019 7 11 0.00 0.00
11:59 am 11:59 Partly Cloudy 90 32.2 74 23.3 59 59 NNW 9 15 30.08 1019 7 11 0.00 0.00
12:59 pm 12:59 Mostly Cloudy 91 32.8 72 22.2 54 54 N 8 13 30.07 1018 8 13 0.00 0.00
1:59 pm 13:59 Mostly Cloudy 91 32.8 69 20.6 49 49 NNE 7 11 30.07 1018 9 14 0.00 0.00
2:59 pm 14:59 Mostly Cloudy 90 32.2 69 20.6 50 50 ENE 9 15 30.06 1018 9 14 0.00 0.00
3:59 pm 15:59 Mostly Cloudy 91 32.8 75 23.9 59 59 E 10 17 30.05 1018 8 13 0.00 0.00
4:59 pm 16:59 Mostly Cloudy 90 32.2 74 23.3 59 59 E 6 9 30.04 1017 8 13 0.00 0.00
5:59 pm 17:59 Mostly Cloudy 91 32.8 77 25 64 64 E 7 11 30.02 1017 9 14 0.00 0.00
6:35 pm 18:35 Mostly Cloudy with Thunderstorms 92 33.3 82 27.8 73 73 S 5 7 30.03 1017 9 14 0.00 0.00
6:59 pm 18:59 Mostly Cloudy with Thunderstorms 93 33.9 76 24.4 58 58 SSW 10 17 30.02 1017 9 14 0.00 0.00
7:34 pm 19:34 Mostly Cloudy 94 34.4 77 25 58 58 SSW 10 17 30.04 1017 9 14 0.00 0.00
7:59 pm 19:59 Mostly Cloudy 92 33.3 77 25 62 62 SW 12 19 30.05 1018 9 14 0.00 0.00
8:59 pm 20:59 Mostly Cloudy 89 31.7 77 25 68 68 SSW 6 9 30.08 1019 10 16 0.00 0.00
9:59 pm 21:59 Mostly Cloudy 88 31.1 80 26.7 77 77 SSW 6 9 30.09 1019 10 16 0.00 0.00
10:59 pm 22:59 Partly Cloudy 88 31.1 78 25.6 73 73 SSW 7 11 30.10 1019 10 16 0.00 0.00
11:59 pm 23:59 Mostly Clear 85 29.4 78 25.6 80 80 SSW 8 13 30.10 1019 9 14 0.00 0.00

Powered by AerisWeather